Regional Weather Roundup
Issued by NWS

Home | Current Version | Previous Version | Graphics & Text | Print | Product List | Glossary On
Versions: 1 2 3 4 5 6 7 8 9 10 11 12 13 14 15 16 17 18 19 20 21 22 23 24 25 26 27 28 29 30 31 32 33 34 35 36 37 38 39 40 41 42 43 44 45 46 47 48 49 50
000
ASUS43 KLOT 060508
RWRIL

ILLINOIS REGIONAL WEATHER ROUNDUP
NATIONAL WEATHER SERVICE CHICAGO/ROMEOVILLE IL
1200 AM CDT FRI MAY 06 2016

NOTE: "FAIR" INDICATES FEW OR NO CLOUDS BELOW 12,000 FEET WITH NO
SIGNIFICANT WEATHER AND/OR OBSTRUCTIONS TO VISIBILITY.

* THESE STATIONS ARE NOT UNDER NWS QUALITY CONTROL. THEY ALSO MAY NOT
  REPORT WEATHER SUCH AS PRECIPITATION OR FOG.

ILZ001-002-007-009-015-016-024-060600-
NORTHWEST ILLINOIS

CITY           SKY/WX    TMP DP  RH WIND       PRES   REMARKS
MOLINE         CLEAR     48  42  80 CALM      29.99S
STERLING*      CLEAR     52  41  66 SW3       29.99S
SAVANNA*       CLEAR     47  43  88 CALM      29.98F
$$

ILZ003-004-008-010-011-017-018-060600-
NORTH CENTRAL ILLINOIS

CITY           SKY/WX    TMP DP  RH WIND       PRES   REMARKS
ROCKFORD       CLEAR     49  40  71 S3        30.00S
FREEPORT*      CLEAR     49  38  67 SW5       30.00S
ROCHELLE*      CLEAR     46  41  85 CALM      29.99F
DE KALB*       CLEAR     49  39  68 CALM      29.99S
$$

ILZ005-006-012>014-019>023-060600-
NORTHEAST ILLINOIS

CITY           SKY/WX    TMP DP  RH WIND       PRES   REMARKS
CHICAGO-OHARE  CLEAR     47  37  68 CALM      29.98F
CHICAGO-MIDWAY CLEAR     50  38  63 CALM      29.98F
AURORA         CLEAR     48  41  76 S3        29.99S
LANSING*       CLEAR     43  40  90 CALM      29.99S
JOLIET*        CLEAR     44  43  96 CALM      29.99S FOG
WAUKEGAN       CLEAR     40  37  89 SW3       29.98S
DUPAGE AIRPORT CLEAR     47  40  76 CALM      29.98S
KANKAKEE*      CLEAR     45  41  86 CALM      30.01R
WHEELING       CLEAR     44  37  76 CALM      30.00S
MORRIS*        CLEAR     51  43  76 CALM      29.99R
ROMEOVILLE*    CLEAR     47  38  71 S3        29.99S
NORTHERLY ISL    N/A     47  37  68 S2          N/A
NORTHERLY ISL    N/A     47  37  68 S2          N/A
$$

LMZ740>746-060600-
SOUTHERN LAKE MICHIGAN

STATION/POSITION SKY/WX   TEMP    WIND        PRES    VSBY  WAVE
                          AIR SEA DIR/SP/G                  HT/PER
                          (F)     (DEG/KT/KT) (MB)    (MI)  (FT/S)
SOUTHERN BUOY              41 40  240/  4/  6 1015.2F         1/ 5
WILMETTE HARBOR            44 44  240/  2/  4   N/A           2/ 5
HARRISON CRIB              48        CALM       N/A
BURNHAM HARBOR             47     180/  1/  2   N/A
CALUMET HARBOR             45     340/  1/  2 1015.1S
BURNS HARBOR               46     310/  2/  4 1016.3S
MICHIGAN CITY              45     270/  4/  5   N/A
ST. JOSEPH                 45 47                N/A           2/ 5
$$

ILZ025>027-034>036-040-047-049-050-058-095>099-060600-
WEST-CENTRAL ILLINOIS

CITY           SKY/WX    TMP DP  RH WIND       PRES   REMARKS
QUINCY         CLEAR     51  41  68 SW5       30.02F
GALESBURG*     CLEAR     45  40  83 CALM      30.01S
MACOMB*        CLEAR     48  40  74 SW3       30.04R
JACKSONVILLE*  CLEAR     49  41  73 CALM      30.02S
PITTSFIELD*    CLEAR     49  45  87 CALM      30.04S
$$

ILZ028>032-037-038-041>044-048-051>054-059>061-060600-
CENTRAL ILLINOIS

CITY           SKY/WX    TMP DP  RH WIND       PRES   REMARKS
PONTIAC        CLEAR     51  44  76 CALM      30.00S
BLOOMINGTON    CLEAR     54  43  66 NW5       30.02R
DECATUR        CLEAR     52  41  66 NW8       30.01R
PEORIA         CLEAR     47  42  83 CALM      30.02R
LACON*         CLEAR     46  41  83 CALM      30.00S
LINCOLN*       CLEAR     50  45  81 CALM      30.01S
SPRINGFIELD    CLEAR     50  44  80 SW3       30.02R
TAYLORVILLE    CLEAR     49  46  89 CALM      30.02R
$$

ILZ033-039-045-046-055>057-062-063-060600-
EAST-CENTRAL ILLINOIS

CITY           SKY/WX    TMP DP  RH WIND       PRES   REMARKS
CHAMPAIGN      PTCLDY    49  42  77 NW5       30.00S
RANTOUL*       CLEAR     50  45  83 CALM      30.00S
MATTOON        CLEAR     51  44  77 CALM      29.99S
PARIS*         CLEAR     47  44  90 CALM      30.00S
$$

ILZ079-100>102-060600-
SOUTHWEST ILLINOIS

CITY           SKY/WX    TMP DP  RH WIND       PRES   REMARKS
ALTON          CLEAR     49  44  81 NW5       30.03S
BELLEVILLE     CLEAR     50  49  99 CALM      30.02R
CAHOKIA*       CLEAR     50  45  83 CALM      30.03R
SPARTA*        CLEAR     52  45  79 W5        30.04R
$$

ILZ064>066-069>071-074>076-080>082-084>086-088>090-092>094-060600-
SOUTH-CENTRAL ILLINOIS

CITY           SKY/WX    TMP DP  RH WIND       PRES   REMARKS
CARBONDALE     CLEAR     48  45  89 CALM      30.02S
CAIRO*         PTCLDY    50  47  88 W5        30.02S
EFFINGHAM*     PTCLDY    48  47  98 CALM      30.02S
MARION         PTCLDY    54  46  76 W3        30.02S
MT. VERNON     PTCLDY    45  39  81 CALM      30.02R
CENTRALIA*     CLEAR     50  48  90 CALM      30.01S
SALEM*         PTCLDY    54  46  74 CALM      30.02R
METROPOLIS*    PTCLDY    49  47  95 CALM      30.02R
$$

ILZ067-068-072-073-078-083-087-091-060600-
SOUTHEAST ILLINOIS

CITY           SKY/WX    TMP DP  RH WIND       PRES   REMARKS
LAWRENCEVILLE  CLEAR     51  44  77 CALM      30.00R
FLORA*         PTCLDY    54  47  77 NW6       30.01R
FAIRFIELD*     PTCLDY    53  46  77 CALM      30.00R
HARRISBURG*    CLEAR     52  47  83 NW7       30.01S
ROBINSON*      PTCLDY    47  43  85 CALM      30.01R
CARMI*         PTCLDY    49  47  93 W3        30.00R
$$

ABBREVIATIONS USED IN REMARKS
   TC - TEMPERATURE IN CELSIUS
  WCI - WIND CHILL INDEX
   HX - HEAT INDEX
  VSB - VISIBILITY
$$




USA.gov is the U.S. government's official web portal to all federal, state and local government web resources and services.